STARLINK-4786, 55393

Orbit data source: Space-Track

STARLINK-4786, 55393 is a payload satellite owned by SpaceX/Seattle (US) in LEO that was launched on Tue, 31 Jan 2023 UTC via an FALCON 9 launch vehicle from the Air Force Western Test Range (AFWTR). Payload-class satellites include a variety of spacecraft equipped with specific instruments for various scientific and technological missions. These include communications satellites like Starlink; space stations such as the ISS; scientific satellites like the Hubble; Earth observation satellites from companies like Planet Labs, Umbra, and HawkEye 360; GPS; miniature CubeSats for education and research; and military/defense satellites.

Loading next visibility...
Identifier
55393, 2023-014C
Orbit
LEO
Country
Flag of USUS
Related business
Manufacturer
SpaceX/Seattle
Mission
Operational Commercial Communications
Bus & Motor
STARLINK, Unknown motor
Mass
305 kg wet, ~290 kg dry
Launch date (UTC)
2023-01-31 (3 years ago)
Launch vehicle
FALCON 9
Launch site
Air Force Western Test Range (AFWTR)
Object type
Payload
Rocket body
Debris
Shape & HBR
Box + 1 Pan, 10.1 m
Radar Cross Section
13.562 m², Large (>1 m²)

Expand to show TLE details & history
Last TLE update: 2 days ago

TLE from 2 days ago
0 STARLINK-4786
1 55393U 23014C   26171.40272259 -.00000058  00000-0  29107-5 0  9991
2 55393  69.9995 165.3767 0003952 264.8185  95.2523 14.98330906187445
Epoch: 2026-06-20T09:39Z
TLE epoch observation values (Epoch: 2026-06-20T09:39:55.231Z)
Latitude
-0.00005°
Longitude
111.7787°
Altitude
574.729 km
Speed
7.574 km/s
True Right ascension
11h 01m 30s
True Declination
0° 00' 00"
Sunlit
Object was in daylight at epoch
Visualization orbit readout
Latitude
Unknown
Longitude
Unknown
Altitude
Unknown
Speed
Unknown
Apparent Right ascension
Unknown
Apparent Declination
Unknown
Sunlit
N/A
Visualization observer readout
Local Sidereal Time
21:27:18
Azimuth
Unknown
Elevation
Unknown
Doppler factor
Unknown
Orbital elements
Apogee altitude
572.747 km
Perigee altitude
567.255 km
Semi-major axis
6,948.138 km
Eccentricity
0.0004
Inclination
69.9995°
RAAN
165.3767°
Arg. of periapsis
264.8185°
True anomaly
95.29739°
Mean anomaly
95.2523°
Eccentric anomaly
95.27485°
Mean motion
3.74749 °/min
Orbital period
96.06 mins
BSTAR
0.0000029107
Loading maneuver chart data...
Computing Atmospheric mass density...

Documentation

Showing up to 5 results
|